Location: Unspecified
(0.0000°N, 0.0000°E)
Time: 19:49:54
(UTC+00:00)

Envisat - Pass Details

Date: 03 June 2023
Orbit: 763 x 765 km, 98.2° (Epoch: 05 June)

Event Time Altitude Azimuth Distance (km) Brightness Sun altitude
Rises 02:40:45 0° 36° (NE) 3,212 6.9 -44.6°
Reaches altitude 10° 02:43:27 10° 50° (NE) 2,290 6.0 -44.0°
Enters shadow 02:43:53 12° 53° (NE) 2,160 5.9 -43.9°
